| time (UTC) | temp F | wind direction | speed knots | gust knots | rain 1hr in | rain 24hr in | rain mn in | humidity % | barometer mb |
| 20260504210805 | 59 | 316 | 0.9 | 4.3 | 0.00 | 0.00 | 0.00 | 54 | 1015.4 |
| 20260504210306 | 59 | 41 | 1.7 | 5.2 | 0.00 | 0.00 | 0.00 | 54 | 1015.4 |
| 20260504200805 | 57 | 308 | 0.9 | 1.7 | 0.00 | 0.00 | 0.00 | 55 | 1015.9 |
| 20260504200307 | 56 | 15 | 0.9 | 6.1 | 0.00 | 0.00 | 0.00 | 55 | 1016.0 |
| 20260504190308 | 53 | 69 | 0.9 | 7.0 | 0.00 | 0.00 | 0.00 | 59 | 1016.6 |
| 20260504180305 | 50 | 312 | 2.6 | 7.8 | 0.00 | 0.00 | 0.00 | 63 | 1017.1 |
| 20260504170805 | 47 | 292 | 2.6 | 5.2 | 0.00 | 0.00 | 0.00 | 69 | 1017.8 |
| 20260504170307 | 46 | 287 | 1.7 | 5.2 | 0.00 | 0.00 | 0.00 | 69 | 1017.8 |
| 20260504160306 | 42 | 290 | 4.3 | 7.8 | 0.00 | 0.00 | 0.00 | 77 | 1018.2 |
| 20260504150805 | 39 | 280 | 2.6 | 5.2 | 0.00 | 0.00 | 0.00 | 83 | 1018.3 |
| 20260504150306 | 38 | 282 | 2.6 | 6.1 | 0.00 | 0.00 | 0.00 | 84 | 1018.4 |
| 20260504140805 | 30 | 288 | 1.7 | 2.6 | 0.00 | 0.00 | 0.00 | 96 | 1018.6 |
| 20260504140306 | 30 | 285 | 1.7 | 4.3 | 0.00 | 0.00 | 0.00 | 95 | 1018.5 |
| 20260504130806 | 31 | 274 | 1.7 | 4.3 | 0.00 | 0.00 | 0.00 | 92 | 1018.4 |
| 20260504130306 | 32 | 288 | 1.7 | 5.2 | 0.00 | 0.00 | 0.00 | 91 | 1018.4 |
| 20260504120307 | 35 | 81 | 1.7 | 5.2 | 0.00 | 0.00 | 0.00 | 87 | 1018.6 |
| 20260504110306 | 38 | 284 | 3.5 | 5.2 | 0.00 | 0.00 | 0.00 | 85 | 1018.4 |
| 20260504100306 | 38 | 284 | 1.7 | 5.2 | 0.00 | 0.00 | 0.00 | 84 | 1018.5 |
| 20260504080805 | 33 | 291 | 2.6 | 4.3 | 0.00 | 0.00 | 0.00 | 92 | 1018.6 |
| 20260504070308 | 36 | 218 | 0.9 | 4.3 | 0.00 | 0.00 | 0.00 | 87 | 1018.5 |
| 20260504050305 | 46 | 267 | 2.6 | 5.2 | 0.00 | 0.00 | 0.00 | 73 | 1017.9 |
| 20260504040805 | 50 | 279 | 5.2 | 5.2 | 0.00 | 0.00 | 0.00 | 64 | 1017.6 |
| 20260504040306 | 50 | 278 | 5.2 | 5.2 | 0.00 | 0.00 | 0.00 | 65 | 1017.6 |
| 20260504030805 | 52 | 279 | 2.6 | 4.3 | 0.00 | 0.00 | 0.00 | 61 | 1017.5 |
| 20260504030305 | 53 | 268 | 1.7 | 4.3 | 0.00 | 0.00 | 0.00 | 60 | 1017.5 |
| 20260504020805 | 52 | 154 | 0.9 | 2.6 | 0.00 | 0.00 | 0.00 | 61 | 1017.4 |
| 20260504020305 | 52 | 112 | 0.9 | 2.6 | 0.00 | 0.00 | 0.00 | 60 | 1017.4 |
| 20260504010306 | 53 | 343 | 0.0 | 2.6 | 0.00 | 0.00 | 0.00 | 60 | 1017.5 |
| 20260504000308 | 53 | 271 | 1.7 | 2.6 | 0.00 | 0.00 | 0.00 | 60 | 1017.7 |
| 20260503230308 | 52 | 318 | 0.9 | 4.3 | 0.00 | 0.00 | 0.00 | 62 | 1018.0 |
| 20260503220806 | 51 | 21 | 1.7 | 4.3 | 0.00 | 0.00 | 0.00 | 61 | 1018.1 |
| 20260503220305 | 52 | 3 | 1.7 | 6.1 | 0.00 | 0.00 | 0.00 | 61 | 1018.1 |